www.pogodaiklimat.ru

Погода и климат >> Архив погоды >> Узбекистан >> Каракалпакия


ПОГОДА в Каракалпакии

  • Прогноз погоды в Каракалпакии
  • Монитор погоды в Каракалпакии
  • Климат города

АРХИВ ПОГОДЫ в Каракалпакии

Время (UTC), дата Ветер
(напр.,м/с)
 
Видим.   Явления Облачность Т
(С)
Тd
(С)
f
(%)
Тe
(С)
Тes
(С)
Комфортность P
(гПа)
Po
(гПа)
Тmin
(С)
Tmax
(С)
R
(мм)
R24
(мм)
S
(см)
09 13.06 СВ 1 20 км 3/0
[Ci fib]
+29.0 -5.7 10 +26 +46 жарко 1014.3 999.9
12 13.06 СВ 2 20 км ясно +29.8 -4.7 10 +26 +35 жарко 1013.8 999.4
15 13.06 С 2 20 км ясно +27.7 -2.5 14 +25 +26 комфорт 1010.0 995.6 +29.9
18 13.06 С 2 н/о ясно +20.2 -5.0 18 +20 +20 1011.5 996.7 +29.9
21 13.06 С 2 н/о ясно +18.6 -2.2 24 +19 +19 1012.8 997.9
00 14.06 ЮВ 3 н/о 6/0
[Ci sp]
+17.0 -1.7 28 +17 +17 1013.1 998.1
06 14.06 В 4 20 км ясно +28.0 -3.6 12 +25 +35 комфорт 1014.5 1000.0 +14.9
09 14.06 ЮВ 2 20 км 4/0
[Ci fib]
+31.4 -3.6 10 +28 +45 жарко 1013.8 999.5
12 14.06 ЮВ 2 20 км 8/0
[Ci fib]
+32.6 -9.4 6 +28 +36 жарко 1012.7 998.7
18 14.06 СВ 2 н/о ясно +24.6 -7.4 11 +22 +22 комфорт 1013.5 998.9 +33.6
21 14.06 ЮВ 5 н/о ясно +19.8 -6.4 16 +19 +19 1014.3 999.4
00 15.06 Ю 4 н/о ясно +17.1 -6.0 20 +17 +17 1014.1 999.1
06 15.06 Ю 4 20 км ясно +30.9 -5.0 9 +27 +37 жарко 1014.4 1000.1 +16.2
09 15.06 Ю 3 20 км ясно +33.9 -7.0 7 +30 +45 жарко 1014.3 1000.1
12 15.06 Ю 3 20 км ясно +34.9 -8.2 6 +30 +38 жарко 1011.7 997.6
15 15.06 Ю 3 20 км ясно +33.6 -8.2 6 +29 +30 жарко 1011.3 997.2 +36.4
18 15.06 Ю 4 н/о ясно +25.0 -6.7 12 +23 +23 комфорт 1011.3 996.8 +36.4
21 15.06 Ю 5 н/о ясно +22.1 -5.5 15 +21 +21 комфорт 1011.0 996.5
00 16.06 Ю 4 н/о ясно +18.5 -3.8 22 +18 +18 1011.9 997.1
06 16.06 В 1 20 км ясно +32.2 -4.1 9 +28 +46 жарко 1009.9 995.7 +16.9
09 16.06 ЮВ 3 20 км ясно +34.8 -5.4 7 +31 +46 жарко 1009.2 995.2
12 16.06 Ю 3 20 км ясно +36.0 -7.8 6 +32 +39 жарко 1007.6 993.6
18 16.06 ЮВ 3 н/о ясно +24.8 -11.7 8 +22 +22 комфорт 1006.3 991.9 +36.9
21 16.06 ЮВ 4 н/о ясно +21.6 -12.7 9 +20 +20 1005.7 991.1
00 17.06 ЮВ 2 н/о 4/0
[Ci fib]
+17.4 -10.7 14 +18 +18 1005.3 990.5
03 17.06 ЮЗ 3 20 км 5/0
[Ci fib]
+23.7 -10.7 9 +21 +24 комфорт 1004.5 990.0
06 17.06 С 4 20 км 8/0
[Ci fib]
+29.8 +0.6 15 +27 +36 жарко 1004.2 990.0 +16.3
09 17.06 СЗ 4 20 км 10/0
[Ci fib]
+33.0 +3.0 15 +30 +40 жарко 1003.4 989.4
12 17.06 С 2 20 км 4/0
[Ci fib]
+34.0 +1.1 12 +31 +39 жарко 1003.0 989.0
15 17.06 С 5 20 км ясно +31.7 +2.1 15 +29 +29 жарко 1002.9 988.8 +34.6
18 17.06 С 4 н/о ясно +25.6 -1.9 16 +24 +24 комфорт 1003.9 989.5 +34.6
21 17.06 С 4 н/о ясно +22.0 -3.3 18 +21 +21 комфорт 1004.6 990.0
00 18.06 С 2 н/о ясно +18.1 0.0 29 +19 +19 1005.3 990.5
06 18.06 С 3 20 км 3/0
[Ci fib]
+27.0 +2.5 21 +25 +37 комфорт 1005.1 990.8 +17.4
09 18.06 С 3 20 км 3/0
[Ci fib]
+30.6 -1.2 13 +27 +42 жарко 1004.9 990.8
12 18.06 С 2 20 км 8/0
[Ci sp]
+31.8 -1.2 12 +28 +36 жарко 1004.7 990.6
18 18.06 С 2 н/о 3/0
[Ci sp]
+23.8 -1.2 19 +22 +22 комфорт 1004.9 990.4 +32.6
21 18.06 С 2 н/о 3/0
[Ci fib]
+20.8 -1.2 23 +21 +21 комфорт 1005.2 990.6
00 19.06 С 2 н/о ясно +15.8 -2.0 29 +16 +16 1005.7 990.9
03 19.06 В 1 20 км 8/0
[Ci fib]
+22.2 0.0 23 +22 +25 комфорт 1007.4 992.7
06 19.06 ЮЗ 2 20 км 4/0
[Ci fib]
+29.2 0.0 15 +27 +40 жарко 1008.8 994.5 +15.8
09 19.06 ЮЗ 2 20 км ясно +31.6 -0.9 12 +28 +47 жарко 1007.6 993.5
12 19.06 З 2 20 км ясно +32.7 -2.0 11 +29 +38 жарко 1007.2 993.1
15 19.06 СЗ 3 20 км ясно +31.4 -3.0 11 +28 +28 жарко 1007.3 993.1 +33.9
18 19.06 З 1 н/о ясно +26.6 -1.9 15 +24 +24 комфорт 1009.5 995.1 +33.9
21 19.06 З 3 н/о ясно +23.4 +2.5 25 +23 +23 комфорт 1010.0 995.4
00 20.06 СЗ 1 н/о ясно +20.3 +4.5 35 +22 +22 комфорт 1010.6 995.9

 

Местоположение метеостанции Каракалпакия (Каракалпакстан, Узбекистан): широта 44.85 долгота 56.33 высота над уровнем моря 126 м.

В архиве по умолчанию представлена погода в Каракалпакии за последнюю неделю. Архивные данные за месяц целиком и за предыдущие месяцы, начиная с января 2011 года, Вы можете получить, выбрав интересующий диапазон дат из раскрывающегося списка и нажав кнопку "Ввод!".


*Определитесь, кто Вы:
робот инопланетянин человек

Внимание! Время в таблицах - всемирное. Для получения местного времени необходимо прибавить поправку, которая в Каракалпакии равна 5 ч.

Смотрите также архив погоды в соседних городах и на ближайших метеорологических станциях:

Погода в Саме (Мангистауская область, Казахстан) (63 км)
Погода в Бейнеу (Мангистауская область, Казахстан) (103 км)
Погода в Жаслыке (Каракалпакстан, Узбекистан) (144 км)
Погода в Опорной (Мангистауская область, Казахстан) (197 км)
Погода в Муйнаке (Каракалпакстан, Узбекистан) (227 км)
Погода в Сай-Утесе (Мангистауская область, Казахстан) (228 км)
Погода в Аккудуке (Мангистауская область, Казахстан) (274 км)
Погода в Кульсары (Атырауская область, Казахстан) (286 км)
Погода в Кунграде (Каракалпакстан, Узбекистан) (286 км)
Погода в Аяккуме (Актюбинская область, Казахстан) (303 км)

Пояснения к столбцам:

Ветер - указаны скорость ветра в м/с - средняя за 10 мин, порывы в срок и между сроками (в фигурных скобках) и направление, откуда дует ветер: С - северный, СВ - северо-восточный, В - восточный, ЮВ - юго-восточный, Ю - южный, ЮЗ - юго-западный, З - западный, СЗ - северо-западный.
Видимость - горизонтальная дальность видимости в метрах или километрах. При видимости от 1 до 10 км при отсутствии осадков обычно наблюдается дымка, при ухудшении видимости до 1 км и менее - туман. В сухую погоду видимость может ухудшаться дымом, пылью или мглою.
Явления - указаны атмосферные явления, наблюдавшиеся в срок или в последний час перед сроком; фигурными скобками обозначены явления, наблюдавшиеся между сроками (за 1-3 часа до срока); квадратными скобками обозначены град или гололедные отложения с указанием их диаметра в мм.
Облачность - указаны через наклонную черту общая и нижняя облачность в баллах и высота нижней границы облаков в метрах; квадратными скобками обозначены формы облаков: Ci - перистые, Cs - перисто-слоистые, Cc - перисто-кучевые, Ac - высококучевые, As - высокослоистые, Sc - слоисто-кучевые, Ns - слоисто-дождевые, Cu - кучевые, Cb - кучево-дождевые. Подробнее классификацию облаков см. в Атласе облаков (PDF).
T - Температура воздуха - температура, измеренная на высоте 2 м над землей.
Td - Температура точки росы - температура, при понижении до которой содержащийся в воздухе водяной пар достигнет насыщения.
f - Относительная влажность воздуха - влажноcть воздуха, измеренная на высоте 2 м над землей.
Te - Эффективная температура - температура, которую ощущает одетый по сезону человек в тени. Характеристика душности погоды. При расчете учитывается влияние влажности воздуха и скорости ветра на теплоощущения человека.
Tes - Эффективная температура на солнце - температура, которую ощущает человек, с поправкой на солнечный нагрев. Характеристика знойности погоды. Зависит от высоты солнца над горизонтом, облачности и скорости ветра. Ночью, в пасмурную погоду, а также при ветре 12 м/с и более поправка равна нулю.
P - Атмосферное давление - приведенное к уровню моря атмосферное давление.
Po - Атмосферное давление - измеренное на уровне метеостанции атмосферное давление.
Tmin - Минимальная температура - минимум температуры воздуха на высоте 2 м над землей.
Tmax - Максимальная температура - максимум температуры воздуха на высоте 2 м над землей.
R - Количество осадков - Количество выпавших осадков за период времени, мм. При наведении курсора мыши на число - период времени, за который выпало указанное количество осадков.
R24 - Количество осадков - Количество выпавших осадков за 24 часа, мм.
S - Снежный покров - Высота снежного покрова, см. При наведении курсора мыши на число - состояние снежного покрова и степень покрытия местности в баллах.